Simultaneous Nadir Overpasses (SNOs) Predictions

Prediction of SNOs between NOAA-15 and METOP-C Satellite Orbit:

Table of predicted SNOs for the next 14.0 days since TLE Epoch: 8/17/2024
Index Date (NOAA-15) Time (NOAA-15) Lat,Lon (NOAA-15) SZA (NOAA-15 ) Date (METOP-C) Time (METOP-C) Lat,Lon (METOP-C) SZA (METOP-C ) Distance(km) Time Diff (sec)
1 08/20/2024 23:43:04 81.03,-137.57 70.89 08/20/2024 23:41:51 81.03,-137.62 70.85 0.87 73
2 08/21/2024 00:33:31 -81.04, 29.68 109.11 08/21/2024 00:32:32 -81.03, 29.66 109.15 1.35 59
3 08/21/2024 01:24:03 81.02,-162.63 70.92 08/21/2024 01:23:12 81.04,-162.75 70.90 2.71 51
4 08/21/2024 02:14:30 -81.03, 4.63 109.08 08/21/2024 02:13:53 -81.04, 4.53 109.10 1.92 37
5 08/21/2024 03:05:03 81.03, 171.95 70.94 08/21/2024 03:04:33 81.05, 172.11 70.95 3.25 30
6 08/21/2024 03:55:30 -81.04, -20.79 109.06 08/21/2024 03:55:14 -81.05, -20.61 109.05 3.16 16
7 08/21/2024 04:46:03 81.04, 146.53 70.95 08/21/2024 04:45:55 81.04, 146.61 70.95 1.44 8
8 08/21/2024 05:36:30 -81.05, -46.21 109.05 08/21/2024 05:36:36 -81.04, -46.12 109.05 1.90 6
9 08/21/2024 06:27:02 81.03, 121.47 70.99 08/21/2024 06:27:16 81.05, 121.47 71.00 1.82 14
10 08/21/2024 07:17:29 -81.04, -71.26 109.01 08/21/2024 07:17:57 -81.05, -71.25 109.00 0.94 28
11 08/21/2024 08:08:02 81.04, 96.04 71.00 08/21/2024 08:08:38 81.04, 95.97 71.01 1.34 36
12 08/21/2024 08:58:29 -81.05, -96.68 109.00 08/21/2024 08:59:19 -81.04, -96.76 108.99 1.52 50
13 08/21/2024 09:49:02 81.05, 70.62 71.01 08/21/2024 09:50:00 81.04, 70.46 71.01 3.18 58



Historial Predications of SNOs between NOAA-15 and METOP-C
